Find Starlink 30533

NORAD ID: 58037 Int'l Des: 2023-156 Owner: SPXS Country: US Constellation: starlink operational
LEOCIRCULAR

Live Position

Loading 3D Globe...

About Starlink 30533

Description loading...

Upcoming Passes

Passes for default location (London). Set your location on the main map for personalized predictions.

Altitude History

Loading altitude history...

Two-Line Element Set

1 58037U 23156K 26109.84673365 .00004697 00000-0 17053-3 0 9995
2 58037 53.1588 337.0310 0001370 99.1517 260.9639 15.30213694141336
Epoch: Apr 19, 2026 • Age: 8 hours

Current Status

Altitude 489.0 km
Velocity 7.62 km/s
Sub-Earth Point -39.70°S, 30.15°E
Launch Date Oct 9, 2023
Age 2.5 years
Type internet

Technical Details

Classification Payload
Mass 730.00 kg
Dry Mass 700.00 kg
Total Mass 730.00 kg
Length 0.30 m
Diameter 4.10 m
Span 29.00 m
Shape Box + pan
Manufacturer SPXS
Bus Type Starlink V2M
Phase Status In Orbit
Owner/State SPXS/US

Most Searched